カタログに戻る

FENGYUN 1C DEB

運用中SSO
NORAD 35201·DEBRIS·🇨🇳 China

打ち上げ May 10, 1999 から Taiyuan Satellite Launch Center

Loading…

次のパス (今後24時間)

TLE

最新Source: Space-Track

元期: Sep 14, 2026, 21:43 UTC

1 35201U 99025DPH 26257.90530179  .00000112  00000-0  85910-4 0  9993
2 35201  98.7074 263.5607 0006730 178.4359 298.2531 14.11147267909147

AllMySatでFENGYUN 1C DEBをリアルタイム追跡

Download on the App Store